[[[{"header":{"parameterUnit":"kt","parameterCategory":2,"dx":1,"dy":1,"la1":30.253999710083008,"la2":30.299108505249023,"lo1":-89.0895004272461,"lo2":-89.04439544677734,"nx":28,"ny":28,"refTime":"2022-09-21T21:00:00:Z","depth":0,"parameterNumber":1,"parameterNumberName":"U-component_of_WINDS"},"data":[-0.6076,-0.6078,-0.606,-0.6055,-0.6037,-0.6031,-0.6022,-0.601,-0.5995,-0.5985,-0.5975,-0.5957,-0.5935,-0.592,-0.5909,-0.5902,-0.5899,-0.5913,-0.5902,-0.5854,-0.5846,-0.5839,-0.5837,-0.5913,-0.5913,-0.5955,-0.5955,-0.5955,-0.6043,-0.6026,-0.6018,-0.5997,-0.599,-0.5965,-0.5946,-0.5942,-0.5937,-0.5918,-0.5908,-0.5898,-0.5887,-0.5859,-0.5846,-0.5847,-0.5835,-0.5845,-0.5845,-0.5843,-0.579,-0.5789,-0.5855,-0.5855,-0.5855,-0.5855,-0.5855,-0.5855,-0.5979,-0.5981,-0.5958,-0.5948,-0.5933,-0.5919,-0.5918,-0.5895,-0.5887,-0.587,-0.5849,-0.5843,-0.5821,-0.5796,-0.5783,-0.5777,-0.5763,-0.5768,-0.577,-0.5772,-0.5777,-0.5722,-0.5774,-0.5774,-0.5773,-0.5773,-0.5773,0,-0.5926,-0.5911,-0.5901,-0.5886,-0.5878,-0.5865,-0.5849,-0.5848,-0.5808,-0.5803,-0.5794,-0.5785,-0.5768,-0.5758,-0.5741,-0.5726,-0.57,-0.5695,-0.5699,-0.571,-0.5722,-0.5717,-0.5634,-0.5694,-0.5693,-0.5693,-0.5692,-0.5692,-0.5861,-0.5865,-0.5832,-0.5828,-0.5814,-0.5808,-0.58,-0.5765,-0.5759,-0.5734,-0.5738,-0.5726,-0.5715,-0.5703,-0.5677,-0.5665,-0.5652,-0.5677,-0.565,-0.566,-0.5654,-0.5655,-0.5656,-0.5684,-0.5685,-0.5686,-0.5687,0,-0.5827,-0.5796,-0.5796,-0.5762,-0.5754,-0.576,-0.5731,-0.5732,-0.5709,-0.5707,-0.5704,-0.5669,-0.5661,-0.563,-0.5614,-0.5598,-0.5609,-0.5596,-0.5616,-0.5613,-0.5633,-0.5632,-0.5702,-0.571,-0.563,-0.5631,-0.5631,0,-0.576,-0.5766,-0.5721,-0.5722,-0.5728,-0.5693,-0.57,-0.5681,-0.5661,-0.5659,-0.5624,-0.5623,-0.5583,-0.5578,-0.5554,-0.5557,-0.5554,-0.5543,-0.5537,-0.5547,-0.5548,-0.5544,-0.5541,-0.5521,-0.5521,-0.5521,-0.552,0,-0.571,-0.5692,-0.5695,-0.5686,-0.565,-0.5652,-0.5638,-0.5615,-0.5608,-0.5593,-0.5589,-0.5574,-0.5567,-0.5557,-0.5527,-0.551,-0.553,-0.55,-0.5518,-0.5519,-0.5525,-0.5526,-0.5594,-0.552,-0.552,-0.552,-0.552,0,-0.5652,-0.5637,-0.5645,-0.5615,-0.5612,-0.5613,-0.5597,-0.5591,-0.5569,-0.5554,-0.5543,-0.5516,-0.5515,-0.5488,-0.5487,-0.5473,-0.5468,-0.5457,-0.5457,-0.5457,-0.5428,-0.5472,-0.5539,-0.5546,-0.5455,-0.5454,-0.5454,0,-0.5604,-0.5603,-0.5572,-0.558,-0.5576,-0.5537,-0.5538,-0.552,-0.55,-0.5493,-0.5472,-0.5464,-0.5438,-0.5431,-0.5434,-0.5412,-0.543,-0.5408,-0.5401,-0.5401,-0.5409,-0.547,-0.5489,-0.5528,-0.5446,-0.5447,-0.5447,0,-0.5563,-0.5519,-0.5523,-0.5511,-0.5481,-0.5477,-0.5478,-0.5462,-0.546,-0.5443,-0.5443,-0.5432,-0.5411,-0.5401,-0.5378,-0.5383,-0.5417,-0.5361,-0.5359,-0.5373,-0.5439,-0.5457,-0.5464,-0.54,-0.5401,-0.5402,-0.5442,0,-0.5484,-0.5479,-0.5487,-0.5463,-0.5454,-0.5457,-0.5424,-0.5419,-0.5398,-0.5377,-0.5376,-0.5353,-0.5338,-0.5337,-0.5316,-0.5337,-0.5329,-0.5307,-0.528,-0.5319,-0.5332,-0.5337,-0.5264,-0.5263,-0.5262,-0.5261,0,0,-0.5446,-0.5439,-0.5405,-0.5404,-0.5395,-0.5355,-0.5361,-0.5347,-0.5322,-0.5316,-0.53,-0.5282,-0.5264,-0.5267,-0.5276,-0.527,-0.5271,-0.5258,-0.53,-0.5305,-0.5309,-0.5323,-0.5329,-0.526,-0.526,-0.5259,-0.5259,0,-0.5411,-0.5392,-0.5399,-0.5383,-0.5359,-0.5336,-0.5337,-0.5306,-0.5293,-0.5292,-0.526,-0.5255,-0.5241,-0.5226,-0.5217,-0.5257,-0.5233,-0.5254,-0.5287,-0.5293,-0.5299,-0.5304,-0.5319,-0.5324,-0.5257,-0.5257,-0.5257,0,-0.5366,-0.5342,-0.5341,-0.5318,-0.5302,-0.5298,-0.5261,-0.5258,-0.5255,-0.5212,-0.5211,-0.5194,-0.5172,-0.5178,-0.518,-0.5166,-0.5201,-0.5183,-0.5188,-0.5188,-0.5192,-0.5199,-0.5205,-0.5125,-0.5125,-0.5125,0,0,-0.534,-0.5335,-0.5299,-0.5308,-0.53,-0.5267,-0.5261,-0.5239,-0.5219,-0.5212,-0.5189,-0.5172,-0.5163,-0.5158,-0.5148,-0.516,-0.5153,-0.5168,-0.5175,-0.518,-0.5183,-0.5188,-0.5195,-0.5123,-0.5123,-0.5123,0,0,-0.5327,-0.5286,-0.5268,-0.5274,-0.5257,-0.5222,-0.523,-0.5206,-0.5194,-0.519,-0.5153,-0.5147,-0.5152,-0.5137,-0.5124,-0.5138,-0.5111,-0.5114,-0.5148,-0.5156,-0.5162,-0.5166,-0.5084,0,0,0,0,0,-0.5274,-0.5291,-0.5275,-0.5271,-0.5242,-0.5231,-0.5227,-0.5197,-0.5179,-0.5185,-0.5163,-0.5137,-0.5122,-0.511,-0.5107,-0.5122,-0.5108,-0.5111,-0.5113,-0.516,-0.5168,-0.5175,0,0,0,0,0,0,-0.5272,-0.5267,-0.5274,-0.5241,-0.5234,-0.523,-0.5193,-0.5185,-0.5177,-0.5172,-0.5142,-0.5136,-0.5111,-0.511,-0.5108,-0.5122,-0.5084,-0.5109,-0.5111,-0.5113,-0.5163,-0.517,-0.5175,0,0,0,0,0,-0.5271,-0.5267,-0.5228,-0.5241,-0.5235,-0.5198,-0.5192,-0.5185,-0.5179,-0.5144,-0.5137,-0.5156,-0.5112,-0.5108,-0.5108,-0.5124,-0.5086,-0.5085,-0.511,-0.5112,-0.5114,-0.5166,0,0,0,0,0,0,-0.5269,-0.5261,-0.5226,-0.5223,-0.5232,-0.5198,-0.5191,-0.5186,-0.515,-0.5143,-0.5156,-0.5153,-0.5113,-0.5109,-0.5107,-0.5126,-0.5087,-0.5086,-0.5085,-0.5112,-0.5113,-0.5115,0,0,0,0,0,0,-0.5262,-0.5258,-0.5224,-0.5215,-0.5211,-0.5198,-0.5192,-0.5188,-0.515,-0.5164,-0.516,-0.5155,-0.5117,-0.5111,-0.5108,-0.5104,-0.5088,-0.5087,-0.5086,-0.5086,-0.5113,-0.5114,0,0,0,0,0,0,-0.526,-0.5257,-0.5215,-0.5212,-0.5208,-0.5173,-0.5194,-0.5165,-0.5142,-0.5166,-0.5139,-0.5137,-0.5119,-0.5116,-0.511,-0.5106,-0.5104,-0.5087,-0.5087,-0.5087,-0.5086,0,0,0,0,0,0,0,-0.5258,-0.5289,-0.5243,-0.521,-0.5206,-0.5196,-0.5195,-0.5194,-0.5141,-0.514,-0.5139,-0.5138,-0.5092,-0.5091,-0.509,-0.5109,0,0,-0.5088,-0.5087,0,0,0,0,0,0,0,0,-0.5289,-0.5289,-0.5243,-0.5243,-0.5242,-0.5195,-0.5195,-0.5194,-0.5141,-0.514,-0.5139,-0.5138,-0.5091,-0.5091,-0.509,0,0,0,0,0,0,0,0,0,0,0,0,0,0,0,-0.5243,-0.5243,0,-0.5195,-0.5195,-0.5194,-0.5141,-0.514,-0.514,-0.5139,-0.5091,-0.5091,-0.509,0,0,0,0,0,0,0,0,0,0,0,0,0,0,0,0,0,0,0,0,0,0,0,0,0,0,0,0,0,0,0,0,0,0,0,0,0,0,0,0,0,0,0,0,0,0,0,0,0,0,0,0,0,0,0,0,0,0,0,0,0,0,0,0,0,0,0,0,0]}],[{"header":{"parameterUnit":"kt","parameterCategory":2,"dx":1,"dy":1,"la1":30.253999710083008,"la2":30.299108505249023,"lo1":-89.0895004272461,"lo2":-89.04439544677734,"nx":28,"ny":28,"refTime":"2022-09-21T21:00:00:Z","depth":0,"parameterNumber":2,"parameterNumberName":"V-component_of_WINDS"},"data":[-4.0933,-4.0981,-4.0985,-4.1041,-4.1054,-4.1092,-4.1107,-4.1126,-4.1142,-4.1187,-4.1213,-4.122,-4.1236,-4.1267,-4.1294,-4.1296,-4.1309,-4.1324,-4.1324,-4.1253,-4.1243,-4.1234,-4.1225,-4.1326,-4.1326,-4.1399,-4.14,-4.14,-4.0885,-4.0899,-4.0929,-4.0961,-4.0987,-4.0975,-4.0998,-4.102,-4.1054,-4.1073,-4.1098,-4.1137,-4.1167,-4.1177,-4.1206,-4.1228,-4.1224,-4.1236,-4.1236,-4.1239,-4.1162,-4.1152,-4.1239,-4.1239,-4.1239,-4.1239,-4.1239,-4.1239,-4.08,-4.0827,-4.0849,-4.0881,-4.0897,-4.0918,-4.0944,-4.0952,-4.098,-4.1012,-4.1008,-4.1046,-4.1064,-4.1098,-4.111,-4.1139,-4.1125,-4.1139,-4.1143,-4.1147,-4.1153,-4.1054,-4.1143,-4.1143,-4.1142,-4.1142,-4.1142,0,-4.0739,-4.074,-4.0768,-4.0798,-4.0821,-4.0843,-4.0864,-4.088,-4.088,-4.0903,-4.0936,-4.0955,-4.0991,-4.1022,-4.1048,-4.1057,-4.1046,-4.1043,-4.1054,-4.1059,-4.1061,-4.1064,-4.0942,-4.1041,-4.104,-4.104,-4.1039,-4.1039,-4.0655,-4.0685,-4.0708,-4.0727,-4.0739,-4.0769,-4.0787,-4.0785,-4.0805,-4.0828,-4.0852,-4.0881,-4.0906,-4.0955,-4.0962,-4.0988,-4.0983,-4.1022,-4.0987,-4.0991,-4.0988,-4.0987,-4.0992,-4.103,-4.1031,-4.1032,-4.1033,0,-4.0609,-4.0613,-4.066,-4.0678,-4.0683,-4.0715,-4.0729,-4.0755,-4.0758,-4.0794,-4.0803,-4.0808,-4.0839,-4.0838,-4.0872,-4.0871,-4.0924,-4.0917,-4.092,-4.0919,-4.0956,-4.0954,-4.1069,-4.1086,-4.0977,-4.0978,-4.0979,0,-4.054,-4.0579,-4.0583,-4.061,-4.0653,-4.065,-4.0693,-4.07,-4.0714,-4.0743,-4.0729,-4.0756,-4.075,-4.0777,-4.0775,-4.0818,-4.0823,-4.0826,-4.0825,-4.0829,-4.0829,-4.084,-4.0836,-4.0819,-4.0818,-4.0817,-4.0817,0,-4.0469,-4.0514,-4.0558,-4.0569,-4.059,-4.061,-4.062,-4.0635,-4.0652,-4.0673,-4.0685,-4.0709,-4.0723,-4.0742,-4.074,-4.0717,-4.0791,-4.0758,-4.0794,-4.0794,-4.0811,-4.0811,-4.0912,-4.0816,-4.0816,-4.0816,-4.0816,0,-4.0415,-4.0438,-4.0499,-4.0517,-4.0529,-4.0556,-4.0581,-4.0604,-4.0621,-4.0622,-4.0638,-4.063,-4.0664,-4.0633,-4.0681,-4.0652,-4.0667,-4.0672,-4.0674,-4.0679,-4.0645,-4.0705,-4.0799,-4.081,-4.0682,-4.0681,-4.068,0,-4.0335,-4.0396,-4.0394,-4.045,-4.0479,-4.0464,-4.0494,-4.0509,-4.0512,-4.0537,-4.054,-4.0566,-4.0543,-4.0551,-4.0575,-4.0579,-4.0617,-4.0574,-4.061,-4.0611,-4.061,-4.0695,-4.0711,-4.0778,-4.0665,-4.0667,-4.0668,0,-4.0272,-4.0298,-4.0308,-4.0321,-4.034,-4.0362,-4.0395,-4.0421,-4.0438,-4.0454,-4.0483,-4.0518,-4.0503,-4.0516,-4.051,-4.0535,-4.0591,-4.0514,-4.0515,-4.0531,-4.0657,-4.0672,-4.0683,-4.0582,-4.0584,-4.0585,-4.0656,0,-4.0196,-4.0225,-4.0252,-4.0278,-4.0294,-4.0328,-4.0329,-4.0346,-4.034,-4.0343,-4.0383,-4.0393,-4.0417,-4.0428,-4.0421,-4.0476,-4.0467,-4.045,-4.042,-4.0475,-4.0499,-4.0508,-4.0385,-4.0384,-4.0384,-4.0383,0,0,-4.012,-4.0162,-4.0156,-4.0189,-4.0203,-4.0186,-4.0223,-4.0233,-4.0256,-4.0266,-4.025,-4.0301,-4.0308,-4.0358,-4.0374,-4.0382,-4.0393,-4.0373,-4.0448,-4.0455,-4.0462,-4.0488,-4.0497,-4.0382,-4.0381,-4.0381,-4.0381,0,-4.0092,-4.0102,-4.0138,-4.0149,-4.0167,-4.0168,-4.0176,-4.0189,-4.0193,-4.0231,-4.0215,-4.0239,-4.0277,-4.029,-4.0301,-4.0367,-4.0354,-4.0374,-4.0412,-4.0441,-4.0449,-4.0456,-4.0483,-4.0492,-4.0379,-4.0379,-4.0379,0,-4.0034,-4.0044,-4.0061,-4.009,-4.0101,-4.0129,-4.0099,-4.0127,-4.0148,-4.0125,-4.0163,-4.0168,-4.0182,-4.0227,-4.0246,-4.0232,-4.0319,-4.0289,-4.0294,-4.0297,-4.0324,-4.0334,-4.0343,-4.0227,-4.0227,-4.0226,0,0,-4.001,-4.0036,-4.0045,-4.0084,-4.0092,-4.0094,-4.0107,-4.0102,-4.0116,-4.0121,-4.0127,-4.014,-4.0163,-4.0178,-4.0199,-4.0248,-4.0251,-4.0271,-4.0278,-4.0284,-4.029,-4.0319,-4.0329,-4.0224,-4.0224,-4.0224,0,0,-3.9998,-4.0011,-4.0003,-4.0048,-4.0062,-4.0073,-4.0097,-4.0086,-4.0105,-4.0101,-4.0092,-4.0095,-4.0137,-4.0141,-4.0116,-4.0189,-4.016,-4.0166,-4.0185,-4.0194,-4.0201,-4.02,-4.0085,0,0,0,0,0,-3.997,-4.001,-4.0002,-4.001,-4.0045,-4.0077,-4.0082,-4.0077,-4.0057,-4.0077,-4.008,-4.0064,-4.0126,-4.0104,-4.0111,-4.0139,-4.02,-4.0204,-4.0208,-4.0244,-4.0254,-4.0262,0,0,0,0,0,0,-3.9973,-3.9982,-4.0001,-4.0013,-4.0021,-4.0076,-4.0042,-4.0042,-4.0055,-4.0052,-4.0064,-4.0064,-4.0059,-4.01,-4.0106,-4.0133,-4.0083,-4.0201,-4.0205,-4.0208,-4.0248,-4.0255,-4.0262,0,0,0,0,0,-3.9975,-3.9983,-4.0041,-4.0013,-4.002,-4.0023,-4.0041,-4.004,-4.005,-4.0054,-4.0054,-4.0045,-4.006,-4.0065,-4.0103,-4.0131,-4.0079,-4.0081,-4.0204,-4.0207,-4.0209,-4.0251,0,0,0,0,0,0,-3.9977,-3.9982,-4.0043,-4.0044,-3.9997,-4.0019,-4.0023,-4.0039,-4.0052,-4.0052,-4.0035,-4.0032,-4.0062,-4.0065,-4.0069,-4.013,-4.0075,-4.0077,-4.0079,-4.0206,-4.0208,-4.021,0,0,0,0,0,0,-3.9978,-3.9984,-4.0044,-4.0024,-4.0024,-4.0017,-4.002,-4.005,-4.0052,-4.0031,-4.0029,-4.0034,-4.0055,-4.0065,-4.0068,-4.0116,-4.0072,-4.0075,-4.0076,-4.0077,-4.0208,-4.021,0,0,0,0,0,0,-3.998,-3.9985,-4.0024,-4.0023,-4.0023,-4.0044,-4.0043,-4.008,-4.0037,-4.0031,-4.0033,-4.0031,-4.0056,-4.0058,-4.0068,-4.0114,-4.0115,-4.0072,-4.0074,-4.0075,-4.0076,0,0,0,0,0,0,0,-3.9982,-3.9951,-4.0032,-4.0023,-4.0022,-4.0062,-4.0063,-4.0063,-4.0036,-4.0035,-4.0033,-4.0032,-4.0059,-4.0061,-4.0064,-4.0113,0,0,-4.0072,-4.0073,0,0,0,0,0,0,0,0,-3.9948,-3.995,-4.0032,-4.0032,-4.0032,-4.0062,-4.0062,-4.0063,-4.0036,-4.0035,-4.0033,-4.0032,-4.006,-4.0062,-4.0064,0,0,0,0,0,0,0,0,0,0,0,0,0,0,0,-4.0032,-4.0032,0,-4.0062,-4.0062,-4.0063,-4.0036,-4.0035,-4.0034,-4.0033,-4.006,-4.0062,-4.0064,0,0,0,0,0,0,0,0,0,0,0,0,0,0,0,0,0,0,0,0,0,0,0,0,0,0,0,0,0,0,0,0,0,0,0,0,0,0,0,0,0,0,0,0,0,0,0,0,0,0,0,0,0,0,0,0,0,0,0,0,0,0,0,0,0,0,0,0,0]}]]]